AUA9006 LGSA-LOWW

Flight info

Callsign AUA9006
Flight time 2h 17m
Altitude 40000
Route SOKRI UY151 DDM DCT DIMIS DCT RETRA DCT BOSNA DCT AGLIB DCT MOSAV DCT INSAX DCT NIGSI NIGSI2W
Aircraft B763/H-SDE3FGHIM3RWXY/LB1

Departure

Time 2026-05-04 17:39
Airport Chania International Airport (LGSA)

Arrival

Time 2026-05-04 19:57
Airport Vienna International Airport (LOWW)
Time Latitude Longitude Altitude Speed Heading
2026-05-04 17:07 35.53860 24.14059 421 ft 0 kts 22°
2026-05-04 17:26 35.53843 24.14051 422 ft 3 kts 20°
2026-05-04 17:27 35.53799 24.14056 424 ft 2 kts 311°
2026-05-04 17:27 35.53778 24.14081 425 ft 2 kts 301°
2026-05-04 17:28 35.53772 24.14095 425 ft 0 kts 290°
2026-05-04 17:31 35.53784 24.14030 425 ft 6 kts 252°
2026-05-04 17:32 35.53707 24.13977 428 ft 6 kts 191°
2026-05-04 17:33 35.53628 24.14142 433 ft 15 kts 112°
2026-05-04 17:33 35.53586 24.14269 434 ft 16 kts 112°
2026-05-04 17:34 35.53453 24.14685 443 ft 17 kts 112°
2026-05-04 17:34 35.53408 24.14822 448 ft 16 kts 112°
2026-05-04 17:35 35.53256 24.15282 456 ft 21 kts 112°
2026-05-04 17:35 35.53144 24.15630 460 ft 22 kts 111°
2026-05-04 17:35 35.53088 24.15809 465 ft 22 kts 111°
2026-05-04 17:36 35.53028 24.15989 468 ft 22 kts 112°
2026-05-04 17:36 35.52970 24.16165 474 ft 21 kts 112°
2026-05-04 17:36 35.52913 24.16337 479 ft 21 kts 112°
2026-05-04 17:36 35.52861 24.16501 484 ft 20 kts 111°
2026-05-04 17:37 35.52810 24.16661 486 ft 18 kts 112°
2026-05-04 17:37 35.52761 24.16807 487 ft 18 kts 112°
2026-05-04 17:37 35.52712 24.16883 489 ft 6 kts 174°
2026-05-04 17:37 35.52673 24.16870 492 ft 6 kts 200°
2026-05-04 17:38 35.52610 24.16840 495 ft 9 kts 204°
2026-05-04 17:38 35.52588 24.16787 497 ft 7 kts 277°
2026-05-04 17:38 35.52609 24.16712 496 ft 11 kts 290°
2026-05-04 17:38 35.52666 24.16532 495 ft 45 kts 293°
2026-05-04 17:39 35.53201 24.14900 496 ft 155 kts 292°
2026-05-04 17:39 35.53622 24.13643 1042 ft 162 kts 292°
2026-05-04 17:39 35.54018 24.12404 1833 ft 160 kts 291°
2026-05-04 17:40 35.54436 24.11042 2209 ft 182 kts 291°
2026-05-04 17:40 35.54936 24.09500 2522 ft 211 kts 293°
2026-05-04 17:40 35.55548 24.07887 3446 ft 210 kts 309°
2026-05-04 17:40 35.56705 24.06854 4303 ft 212 kts 345°
2026-05-04 17:41 35.58152 24.06806 5256 ft 212 kts
2026-05-04 17:41 35.59589 24.06978 6171 ft 213 kts
2026-05-04 17:41 35.61047 24.07167 7126 ft 213 kts
2026-05-04 17:41 35.62510 24.07383 8011 ft 216 kts
2026-05-04 17:42 35.64068 24.07116 8387 ft 244 kts 336°
2026-05-04 17:42 35.65470 24.05809 8960 ft 266 kts 318°
2026-05-04 17:42 35.66819 24.04286 10080 ft 265 kts 322°
2026-05-04 17:42 35.68250 24.02813 10766 ft 282 kts 323°
2026-05-04 17:43 35.69862 24.01207 11065 ft 312 kts 323°
2026-05-04 17:43 35.71598 23.99506 11855 ft 325 kts 323°
2026-05-04 17:43 35.73367 23.97785 12915 ft 329 kts 323°
2026-05-04 17:43 35.75167 23.96045 13898 ft 333 kts 323°
2026-05-04 17:44 35.76968 23.94306 15043 ft 331 kts 323°
2026-05-04 17:44 35.78757 23.92581 16085 ft 331 kts 323°
2026-05-04 17:44 35.80554 23.90849 17090 ft 331 kts 323°
2026-05-04 17:44 35.82366 23.89103 18053 ft 332 kts 323°
2026-05-04 17:45 35.84180 23.87354 18971 ft 334 kts 323°
2026-05-04 17:45 35.86017 23.85583 19817 ft 338 kts 323°
2026-05-04 17:45 35.87877 23.83787 20640 ft 343 kts 323°
2026-05-04 17:45 35.89739 23.81989 21462 ft 345 kts 322°
2026-05-04 17:46 35.91631 23.80162 22197 ft 349 kts 322°
2026-05-04 17:46 35.93552 23.78305 22931 ft 353 kts 322°
2026-05-04 17:46 35.95488 23.76434 23655 ft 355 kts 322°
2026-05-04 17:46 35.97419 23.74564 24288 ft 359 kts 322°
2026-05-04 17:47 35.99381 23.72663 24994 ft 360 kts 322°
2026-05-04 17:47 36.01378 23.70743 25527 ft 365 kts 322°
2026-05-04 17:47 36.03360 23.68840 26175 ft 366 kts 322°
2026-05-04 17:47 36.05392 23.66887 26766 ft 369 kts 322°
2026-05-04 17:48 36.07407 23.64948 27250 ft 373 kts 322°
2026-05-04 17:48 36.09477 23.62956 27763 ft 376 kts 322°
2026-05-04 17:48 36.11529 23.60978 28267 ft 379 kts 322°
2026-05-04 17:48 36.13621 23.58961 28835 ft 380 kts 323°
2026-05-04 17:49 36.15699 23.56956 29265 ft 384 kts 323°
2026-05-04 17:49 36.17816 23.54912 29729 ft 387 kts 322°
2026-05-04 17:49 36.19927 23.52873 30257 ft 387 kts 323°
2026-05-04 17:49 36.22082 23.50790 30605 ft 392 kts 322°
2026-05-04 17:50 36.24279 23.48844 31046 ft 393 kts 329°
2026-05-04 17:50 36.26753 23.47389 31360 ft 400 kts 338°
2026-05-04 17:50 36.29476 23.46512 31729 ft 405 kts 346°
2026-05-04 17:50 36.32254 23.45921 32082 ft 408 kts 346°
2026-05-04 17:51 36.35081 23.45314 32532 ft 408 kts 347°
2026-05-04 17:51 36.37861 23.44729 32989 ft 408 kts 347°
2026-05-04 17:51 36.40631 23.44150 33443 ft 407 kts 347°
2026-05-04 17:51 36.43444 23.43565 33933 ft 406 kts 347°
2026-05-04 17:52 36.46204 23.42992 34384 ft 404 kts 347°
2026-05-04 17:52 36.48989 23.42415 34626 ft 406 kts 347°
2026-05-04 17:52 36.51759 23.41840 34927 ft 407 kts 347°
2026-05-04 17:52 36.54556 23.41261 35223 ft 407 kts 347°
2026-05-04 17:53 36.57343 23.40683 35525 ft 407 kts 347°
2026-05-04 17:53 36.60135 23.40104 35730 ft 409 kts 347°
2026-05-04 17:53 36.62944 23.39520 36008 ft 410 kts 347°
2026-05-04 17:53 36.65781 23.38932 36332 ft 410 kts 347°
2026-05-04 17:54 36.68586 23.38349 36686 ft 409 kts 347°
2026-05-04 17:54 36.71400 23.37762 36957 ft 411 kts 347°
2026-05-04 17:54 36.74213 23.37177 37215 ft 412 kts 347°
2026-05-04 17:54 36.77002 23.36596 37483 ft 412 kts 347°
2026-05-04 17:55 36.79848 23.36003 37678 ft 413 kts 347°
2026-05-04 17:55 36.82684 23.35412 37883 ft 414 kts 347°
2026-05-04 17:55 36.85517 23.34820 38119 ft 414 kts 347°
2026-05-04 17:55 36.88374 23.34224 38270 ft 416 kts 346°
2026-05-04 17:56 36.91221 23.33629 38460 ft 417 kts 347°
2026-05-04 17:56 36.94073 23.33033 38686 ft 416 kts 347°
2026-05-04 17:56 36.96933 23.32435 38842 ft 418 kts 346°
2026-05-04 17:56 36.99768 23.31842 39045 ft 418 kts 347°
2026-05-04 17:57 37.02665 23.31234 39236 ft 417 kts 347°
2026-05-04 17:57 37.05495 23.30641 39419 ft 417 kts 346°
2026-05-04 17:57 37.08373 23.30037 39560 ft 417 kts 346°
2026-05-04 17:57 37.11227 23.29437 39700 ft 418 kts 347°
2026-05-04 17:58 37.14104 23.28838 39859 ft 418 kts 347°
2026-05-04 17:58 37.16951 23.28243 39975 ft 419 kts 347°
2026-05-04 17:58 37.19844 23.27633 40084 ft 419 kts 347°
2026-05-04 17:58 37.22711 23.27028 40113 ft 419 kts 347°
2026-05-04 17:59 37.28458 23.25814 40117 ft 419 kts 347°
2026-05-04 18:00 37.37057 23.23994 40124 ft 419 kts 347°
2026-05-04 18:00 37.42799 23.22776 40123 ft 419 kts 347°
2026-05-04 18:01 37.48312 23.20584 40134 ft 414 kts 330°
2026-05-04 18:01 37.53036 23.16495 40122 ft 415 kts 323°
2026-05-04 18:02 37.59905 23.09977 40134 ft 413 kts 322°
2026-05-04 18:02 37.64471 23.05573 40131 ft 413 kts 322°
2026-05-04 18:03 37.69020 23.01166 40142 ft 412 kts 321°
2026-05-04 18:03 37.73543 22.96770 40135 ft 414 kts 321°
2026-05-04 18:04 37.78097 22.92337 40140 ft 413 kts 322°
2026-05-04 18:05 37.84917 22.85685 40142 ft 414 kts 321°
2026-05-04 18:05 37.89465 22.81239 40140 ft 414 kts 322°
2026-05-04 18:06 37.96267 22.74576 40137 ft 414 kts 322°
2026-05-04 18:06 38.00813 22.70114 40136 ft 414 kts 322°
2026-05-04 18:07 38.05362 22.65644 40141 ft 414 kts 322°
2026-05-04 18:07 38.09890 22.61186 40136 ft 414 kts 322°
2026-05-04 18:08 38.14453 22.56685 40151 ft 415 kts 322°
2026-05-04 18:08 38.18989 22.52204 40150 ft 414 kts 322°
2026-05-04 18:09 38.28052 22.43230 40151 ft 415 kts 322°
2026-05-04 18:10 38.32581 22.38735 40164 ft 417 kts 322°
2026-05-04 18:10 38.37157 22.34185 40147 ft 415 kts 322°
2026-05-04 18:11 38.41690 22.29670 40147 ft 415 kts 321°
2026-05-04 18:11 38.46207 22.25166 40151 ft 415 kts 322°
2026-05-04 18:12 38.50754 22.20622 40145 ft 414 kts 322°
2026-05-04 18:12 38.55255 22.16118 40148 ft 413 kts 322°
2026-05-04 18:13 38.59787 22.11575 40149 ft 415 kts 322°
2026-05-04 18:14 38.66597 22.04734 40152 ft 415 kts 322°
2026-05-04 18:14 38.71125 22.00176 40156 ft 415 kts 322°
2026-05-04 18:15 38.80192 21.91027 40165 ft 416 kts 322°
2026-05-04 18:16 38.84697 21.86470 40147 ft 414 kts 322°
2026-05-04 18:16 38.89226 21.81880 40151 ft 415 kts 322°
2026-05-04 18:17 38.95981 21.75021 40153 ft 414 kts 322°
2026-05-04 18:18 39.02740 21.68140 40144 ft 415 kts 322°
2026-05-04 18:18 39.07274 21.63516 40136 ft 417 kts 322°
2026-05-04 18:19 39.14032 21.56607 40148 ft 414 kts 322°
2026-05-04 18:19 39.18535 21.51994 40139 ft 415 kts 322°
2026-05-04 18:20 39.23048 21.47364 40154 ft 416 kts 322°
2026-05-04 18:20 39.27550 21.42737 40150 ft 414 kts 322°
2026-05-04 18:21 39.32059 21.38095 40151 ft 416 kts 322°
2026-05-04 18:21 39.36546 21.33465 40151 ft 414 kts 321°
2026-05-04 18:22 39.41043 21.28819 40151 ft 414 kts 321°
2026-05-04 18:22 39.45532 21.24175 40162 ft 416 kts 321°
2026-05-04 18:23 39.50040 21.19502 40147 ft 416 kts 321°
2026-05-04 18:23 39.54561 21.14807 40166 ft 418 kts 321°
2026-05-04 18:24 39.59075 21.10111 40162 ft 416 kts 321°
2026-05-04 18:24 39.63572 21.05426 40155 ft 416 kts 321°
2026-05-04 18:25 39.68096 21.00704 40163 ft 416 kts 321°
2026-05-04 18:25 39.72577 20.96019 40160 ft 416 kts 321°
2026-05-04 18:26 39.77112 20.91268 40166 ft 419 kts 321°
2026-05-04 18:26 39.81619 20.86540 40162 ft 418 kts 321°
2026-05-04 18:27 39.86132 20.81796 40164 ft 418 kts 321°
2026-05-04 18:27 39.90654 20.77035 40164 ft 419 kts 321°
2026-05-04 18:28 39.95144 20.72299 40165 ft 418 kts 321°
2026-05-04 18:28 39.99809 20.67766 40173 ft 419 kts 331°
2026-05-04 18:29 40.05203 20.64900 40173 ft 420 kts 337°
2026-05-04 18:29 40.10548 20.61933 40168 ft 420 kts 335°
2026-05-04 18:30 40.18491 20.57186 40164 ft 418 kts 334°
2026-05-04 18:31 40.23764 20.53959 40162 ft 420 kts 334°
2026-05-04 18:31 40.29044 20.50708 40154 ft 419 kts 334°
2026-05-04 18:32 40.34300 20.47462 40155 ft 419 kts 334°
2026-05-04 18:32 40.39558 20.44209 40162 ft 420 kts 334°
2026-05-04 18:33 40.44805 20.40956 40155 ft 419 kts 334°
2026-05-04 18:33 40.50085 20.37676 40154 ft 419 kts 334°
2026-05-04 18:34 40.55346 20.34402 40153 ft 420 kts 334°
2026-05-04 18:34 40.60604 20.31126 40153 ft 419 kts 334°
2026-05-04 18:35 40.65871 20.27837 40151 ft 418 kts 334°
2026-05-04 18:35 40.71127 20.24549 40143 ft 418 kts 334°
2026-05-04 18:36 40.76382 20.21255 40143 ft 420 kts 334°
2026-05-04 18:36 40.81622 20.17967 40136 ft 418 kts 334°
2026-05-04 18:37 40.86886 20.14657 40131 ft 420 kts 334°
2026-05-04 18:37 40.92149 20.11342 40132 ft 419 kts 334°
2026-05-04 18:38 40.97391 20.08034 40121 ft 418 kts 334°
2026-05-04 18:38 41.02631 20.04722 40115 ft 418 kts 334°
2026-05-04 18:39 41.07871 20.01403 40116 ft 419 kts 334°
2026-05-04 18:39 41.13110 19.98079 40127 ft 419 kts 334°
2026-05-04 18:40 41.18343 19.94753 40116 ft 418 kts 334°
2026-05-04 18:40 41.23591 19.91413 40125 ft 419 kts 334°
2026-05-04 18:41 41.28854 19.88056 40124 ft 420 kts 334°
2026-05-04 18:41 41.34114 19.84695 40126 ft 420 kts 334°
2026-05-04 18:42 41.39368 19.81332 40121 ft 420 kts 334°
2026-05-04 18:42 41.44617 19.77966 40121 ft 420 kts 334°
2026-05-04 18:43 41.49873 19.74589 40120 ft 421 kts 334°
2026-05-04 18:43 41.55144 19.71197 40118 ft 421 kts 334°
2026-05-04 18:44 41.60416 19.67798 40116 ft 422 kts 334°
2026-05-04 18:44 41.65677 19.64400 40111 ft 421 kts 334°
2026-05-04 18:45 41.70780 19.61097 40117 ft 421 kts 334°
2026-05-04 18:45 41.76035 19.57690 40116 ft 422 kts 334°
2026-05-04 18:46 41.81341 19.54244 40108 ft 423 kts 334°
2026-05-04 18:46 41.86596 19.50826 40108 ft 422 kts 334°
2026-05-04 18:47 41.91871 19.47387 40109 ft 423 kts 334°
2026-05-04 18:47 41.97173 19.43924 40114 ft 423 kts 334°
2026-05-04 18:48 42.02448 19.40473 40109 ft 423 kts 334°
2026-05-04 18:48 42.07719 19.37018 40114 ft 424 kts 334°
2026-05-04 18:49 42.13025 19.33533 40123 ft 423 kts 333°
2026-05-04 18:49 42.18308 19.30057 40122 ft 423 kts 333°
2026-05-04 18:50 42.23567 19.26591 40124 ft 424 kts 333°
2026-05-04 18:50 42.28844 19.23106 40114 ft 422 kts 333°
2026-05-04 18:51 42.34112 19.19620 40122 ft 424 kts 333°
2026-05-04 18:51 42.39432 19.16094 40130 ft 425 kts 333°
2026-05-04 18:52 42.44685 19.12605 40135 ft 423 kts 333°
2026-05-04 18:52 42.49981 19.09081 40139 ft 423 kts 333°
2026-05-04 18:53 42.55247 19.05570 40144 ft 425 kts 333°
2026-05-04 18:53 42.60549 19.02029 40155 ft 424 kts 333°
2026-05-04 18:54 42.65815 18.98505 40171 ft 427 kts 333°
2026-05-04 18:54 42.71153 18.94927 40172 ft 426 kts 333°
2026-05-04 18:55 42.76452 18.91366 40164 ft 424 kts 333°
2026-05-04 18:55 42.84345 18.86052 40165 ft 426 kts 333°
2026-05-04 18:56 42.89672 18.82456 40162 ft 426 kts 333°
2026-05-04 18:56 42.94953 18.78885 40157 ft 426 kts 333°
2026-05-04 18:57 43.00244 18.75299 40170 ft 425 kts 333°
2026-05-04 18:57 43.05537 18.71706 40172 ft 426 kts 333°
2026-05-04 18:58 43.10850 18.68092 40176 ft 426 kts 333°
2026-05-04 18:58 43.16133 18.64492 40178 ft 427 kts 333°
2026-05-04 18:59 43.21435 18.60871 40173 ft 428 kts 333°
2026-05-04 18:59 43.26748 18.57236 40188 ft 427 kts 333°
2026-05-04 19:00 43.32047 18.53602 40171 ft 427 kts 333°
2026-05-04 19:00 43.37354 18.49957 40162 ft 427 kts 333°
2026-05-04 19:01 43.42654 18.46309 40151 ft 428 kts 333°
2026-05-04 19:01 43.47973 18.42641 40149 ft 428 kts 333°
2026-05-04 19:02 43.53287 18.38969 40142 ft 428 kts 333°
2026-05-04 19:02 43.58579 18.35305 40136 ft 428 kts 333°
2026-05-04 19:03 43.63889 18.31621 40142 ft 428 kts 333°
2026-05-04 19:03 43.69202 18.27928 40133 ft 428 kts 333°
2026-05-04 19:04 43.74503 18.24236 40140 ft 428 kts 333°
2026-05-04 19:04 43.79822 18.20524 40117 ft 429 kts 332°
2026-05-04 19:05 43.85138 18.16807 40118 ft 429 kts 332°
2026-05-04 19:05 43.90461 18.13077 40121 ft 428 kts 332°
2026-05-04 19:06 43.95756 18.09358 40111 ft 428 kts 332°
2026-05-04 19:06 44.01051 18.05633 40102 ft 428 kts 332°
2026-05-04 19:07 44.06381 18.01875 40101 ft 430 kts 332°
2026-05-04 19:07 44.11717 17.98107 40098 ft 430 kts 332°
2026-05-04 19:08 44.17024 17.94350 40105 ft 431 kts 332°
2026-05-04 19:08 44.22364 17.90563 40101 ft 430 kts 332°
2026-05-04 19:09 44.27669 17.86793 40101 ft 429 kts 332°
2026-05-04 19:09 44.32983 17.83008 40090 ft 431 kts 332°
2026-05-04 19:10 44.38328 17.79194 40093 ft 430 kts 332°
2026-05-04 19:10 44.43636 17.75398 40097 ft 431 kts 332°
2026-05-04 19:11 44.48959 17.71583 40094 ft 432 kts 332°
2026-05-04 19:11 44.54276 17.67765 40092 ft 431 kts 332°
2026-05-04 19:12 44.62260 17.62017 40076 ft 432 kts 332°
2026-05-04 19:13 44.67608 17.58158 40075 ft 431 kts 332°
2026-05-04 19:13 44.72932 17.54306 40061 ft 432 kts 332°
2026-05-04 19:14 44.78265 17.50441 40048 ft 432 kts 332°
2026-05-04 19:14 44.83597 17.46569 40051 ft 432 kts 332°
2026-05-04 19:15 44.88916 17.42697 40038 ft 432 kts 332°
2026-05-04 19:15 44.94230 17.38821 40038 ft 433 kts 332°
2026-05-04 19:16 44.99601 17.34896 40025 ft 434 kts 331°
2026-05-04 19:16 45.04951 17.30976 40029 ft 434 kts 331°
2026-05-04 19:17 45.10300 17.27050 40027 ft 432 kts 331°
2026-05-04 19:17 45.15622 17.23135 40032 ft 432 kts 331°
2026-05-04 19:18 45.20924 17.19227 40034 ft 433 kts 331°
2026-05-04 19:18 45.26271 17.15277 40038 ft 434 kts 331°
2026-05-04 19:19 45.31601 17.11331 40032 ft 435 kts 331°
2026-05-04 19:19 45.36959 17.07356 40037 ft 434 kts 331°
2026-05-04 19:20 45.42280 17.03400 40035 ft 433 kts 331°
2026-05-04 19:20 45.47619 16.99423 40040 ft 433 kts 331°
2026-05-04 19:21 45.52948 16.95443 40038 ft 435 kts 331°
2026-05-04 19:21 45.58400 16.91742 40039 ft 436 kts 338°
2026-05-04 19:22 45.64038 16.88591 40034 ft 436 kts 336°
2026-05-04 19:22 45.69647 16.85403 40028 ft 436 kts 337°
2026-05-04 19:23 45.75281 16.82186 40021 ft 436 kts 337°
2026-05-04 19:23 45.80902 16.78966 40024 ft 436 kts 337°
2026-05-04 19:24 45.86538 16.75730 40013 ft 438 kts 337°
2026-05-04 19:24 45.92165 16.72493 40015 ft 439 kts 337°
2026-05-04 19:25 45.97803 16.69241 40018 ft 438 kts 336°
2026-05-04 19:25 46.03464 16.65969 40009 ft 438 kts 336°
2026-05-04 19:26 46.09089 16.62710 40006 ft 437 kts 336°
2026-05-04 19:26 46.14714 16.59444 40004 ft 438 kts 336°
2026-05-04 19:27 46.20355 16.56162 40007 ft 438 kts 336°
2026-05-04 19:27 46.25997 16.52872 40002 ft 439 kts 337°
2026-05-04 19:28 46.31627 16.49582 39998 ft 439 kts 337°
2026-05-04 19:28 46.37308 16.46254 39997 ft 440 kts 337°
2026-05-04 19:29 46.42930 16.42954 39943 ft 439 kts 337°
2026-05-04 19:29 46.45761 16.41289 39593 ft 444 kts 337°
2026-05-04 19:29 46.48654 16.39586 39039 ft 446 kts 337°
2026-05-04 19:29 46.51491 16.37915 38457 ft 444 kts 337°
2026-05-04 19:30 46.54351 16.36227 37807 ft 443 kts 337°
2026-05-04 19:30 46.57175 16.34558 37127 ft 445 kts 336°
2026-05-04 19:30 46.60062 16.32851 36433 ft 448 kts 336°
2026-05-04 19:30 46.62939 16.31147 35833 ft 448 kts 336°
2026-05-04 19:31 46.65784 16.29462 35235 ft 449 kts 336°
2026-05-04 19:31 46.68683 16.27741 34623 ft 450 kts 336°
2026-05-04 19:31 46.71573 16.26024 33930 ft 452 kts 336°
2026-05-04 19:31 46.74487 16.24290 33237 ft 454 kts 336°
2026-05-04 19:32 46.77423 16.22542 32541 ft 457 kts 336°
2026-05-04 19:32 46.80353 16.20794 31852 ft 459 kts 337°
2026-05-04 19:32 46.83322 16.19022 31158 ft 461 kts 337°
2026-05-04 19:32 46.86256 16.17269 30475 ft 462 kts 337°
2026-05-04 19:33 46.89198 16.15509 29801 ft 457 kts 337°
2026-05-04 19:33 46.92115 16.13762 29134 ft 452 kts 337°
2026-05-04 19:33 46.94999 16.12033 28493 ft 446 kts 337°
2026-05-04 19:33 46.97832 16.10332 27906 ft 442 kts 337°
2026-05-04 19:34 47.00696 16.08772 27318 ft 439 kts 343°
2026-05-04 19:34 47.03681 16.07902 26747 ft 438 kts 353°
2026-05-04 19:34 47.06719 16.07491 26178 ft 435 kts 354°
2026-05-04 19:34 47.09707 16.07083 25608 ft 432 kts 354°
2026-05-04 19:35 47.12703 16.06696 25033 ft 428 kts 354°
2026-05-04 19:35 47.15644 16.06319 24454 ft 425 kts 354°
2026-05-04 19:35 47.18553 16.05947 23880 ft 422 kts 354°
2026-05-04 19:35 47.21447 16.05579 23312 ft 419 kts 354°
2026-05-04 19:36 47.24337 16.05212 22750 ft 416 kts 354°
2026-05-04 19:36 47.27216 16.04846 22188 ft 414 kts 354°
2026-05-04 19:36 47.30061 16.04485 21632 ft 411 kts 354°
2026-05-04 19:36 47.32884 16.04126 21075 ft 409 kts 354°
2026-05-04 19:37 47.35733 16.03993 20505 ft 407 kts
2026-05-04 19:37 47.38498 16.04625 20103 ft 403 kts 13°
2026-05-04 19:37 47.41162 16.05826 19756 ft 402 kts 17°
2026-05-04 19:37 47.43825 16.07077 19405 ft 405 kts 17°
2026-05-04 19:38 47.46488 16.08371 19051 ft 403 kts 17°
2026-05-04 19:38 47.49164 16.09683 18689 ft 401 kts 18°
2026-05-04 19:38 47.51772 16.10970 18343 ft 399 kts 18°
2026-05-04 19:38 47.54418 16.12282 18022 ft 398 kts 18°
2026-05-04 19:39 47.57007 16.13569 17979 ft 392 kts 18°
2026-05-04 19:39 47.59578 16.14849 17979 ft 397 kts 18°
2026-05-04 19:39 47.62233 16.16172 17960 ft 401 kts 18°
2026-05-04 19:39 47.64865 16.17486 17754 ft 402 kts 18°
2026-05-04 19:40 47.67522 16.18814 17341 ft 402 kts 18°
2026-05-04 19:40 47.70152 16.20130 16870 ft 397 kts 18°
2026-05-04 19:40 47.72719 16.21416 16415 ft 392 kts 18°
2026-05-04 19:40 47.75296 16.22711 15954 ft 389 kts 19°
2026-05-04 19:41 47.77734 16.24420 15495 ft 388 kts 32°
2026-05-04 19:41 47.80004 16.26561 15067 ft 387 kts 32°
2026-05-04 19:41 47.82267 16.28645 14622 ft 387 kts 32°
2026-05-04 19:41 47.84535 16.30763 14166 ft 382 kts 32°
2026-05-04 19:42 47.86752 16.32838 13708 ft 374 kts 32°
2026-05-04 19:42 47.88944 16.34892 13249 ft 367 kts 32°
2026-05-04 19:42 47.91090 16.36910 12798 ft 365 kts 32°
2026-05-04 19:42 47.93230 16.38923 12355 ft 363 kts 32°
2026-05-04 19:43 47.95349 16.40918 11914 ft 361 kts 32°
2026-05-04 19:43 47.97452 16.42901 11457 ft 355 kts 32°
2026-05-04 19:43 47.99501 16.44834 11039 ft 350 kts 32°
2026-05-04 19:43 48.01525 16.46746 10930 ft 334 kts 32°
2026-05-04 19:44 48.03429 16.48546 10931 ft 317 kts 32°
2026-05-04 19:44 48.05234 16.50254 10900 ft 303 kts 32°
2026-05-04 19:44 48.07009 16.51936 10653 ft 300 kts 32°
2026-05-04 19:44 48.08752 16.53588 10409 ft 297 kts 32°
2026-05-04 19:45 48.10492 16.55239 10154 ft 295 kts 32°
2026-05-04 19:45 48.12228 16.56886 9907 ft 294 kts 32°
2026-05-04 19:45 48.13948 16.58521 9659 ft 291 kts 32°
2026-05-04 19:45 48.15644 16.60133 9416 ft 288 kts 32°
2026-05-04 19:46 48.17320 16.61728 9173 ft 284 kts 32°
2026-05-04 19:46 48.18963 16.63293 8904 ft 282 kts 32°
2026-05-04 19:46 48.20622 16.64856 8632 ft 281 kts 28°
2026-05-04 19:46 48.22465 16.65723 8337 ft 278 kts
2026-05-04 19:47 48.24348 16.65362 8077 ft 273 kts 344°
2026-05-04 19:47 48.26201 16.64662 7761 ft 274 kts 344°
2026-05-04 19:47 48.28038 16.63948 7366 ft 272 kts 343°
2026-05-04 19:47 48.29836 16.63220 7031 ft 265 kts 343°
2026-05-04 19:48 48.31585 16.62499 6695 ft 259 kts 343°
2026-05-04 19:48 48.33311 16.61813 6341 ft 255 kts 345°
2026-05-04 19:48 48.35009 16.61180 6035 ft 253 kts 345°
2026-05-04 19:48 48.36722 16.60534 5720 ft 257 kts 345°
2026-05-04 19:49 48.38426 16.59713 5376 ft 258 kts 328°
2026-05-04 19:49 48.39713 16.57931 5073 ft 251 kts 296°
2026-05-04 19:49 48.40211 16.55501 4779 ft 242 kts 266°
2026-05-04 19:49 48.40071 16.52984 4481 ft 240 kts 258°
2026-05-04 19:50 48.39738 16.50589 4191 ft 235 kts 241°
2026-05-04 19:50 48.38740 16.48777 3999 ft 221 kts 208°
2026-05-04 19:50 48.37375 16.47905 3993 ft 207 kts 195°
2026-05-04 19:50 48.35983 16.47832 4008 ft 202 kts 167°
2026-05-04 19:51 48.34605 16.48377 4004 ft 208 kts 167°
2026-05-04 19:51 48.33198 16.48914 3999 ft 206 kts 166°
2026-05-04 19:51 48.31826 16.49460 3996 ft 205 kts 166°
2026-05-04 19:51 48.30454 16.50017 4008 ft 203 kts 166°
2026-05-04 19:52 48.29124 16.50568 4014 ft 190 kts 166°
2026-05-04 19:52 48.27869 16.51092 3792 ft 188 kts 166°
2026-05-04 19:52 48.26617 16.51617 3540 ft 187 kts 166°
2026-05-04 19:52 48.25356 16.52149 3284 ft 187 kts 166°
2026-05-04 19:53 48.24110 16.52677 3035 ft 186 kts 166°
2026-05-04 19:53 48.22892 16.53193 2786 ft 177 kts 165°
2026-05-04 19:53 48.21785 16.53665 2554 ft 157 kts 165°
2026-05-04 19:53 48.20785 16.54091 2321 ft 142 kts 164°
2026-05-04 19:54 48.19879 16.54478 2139 ft 128 kts 164°
2026-05-04 19:54 48.19036 16.54837 2007 ft 123 kts 164°
2026-05-04 19:54 48.18231 16.55178 1829 ft 116 kts 163°
2026-05-04 19:54 48.17482 16.55495 1662 ft 111 kts 163°
2026-05-04 19:55 48.16729 16.55814 1535 ft 114 kts 163°
2026-05-04 19:55 48.15950 16.56146 1401 ft 117 kts 163°
2026-05-04 19:55 48.15165 16.56479 1247 ft 118 kts 163°
2026-05-04 19:55 48.14369 16.56808 1092 ft 120 kts 163°
2026-05-04 19:56 48.13567 16.57151 948 ft 120 kts 162°
2026-05-04 19:56 48.12754 16.57478 777 ft 121 kts 162°
2026-05-04 19:56 48.11933 16.57848 623 ft 124 kts 163°
2026-05-04 19:56 48.11150 16.58174 595 ft 89 kts 166°
2026-05-04 19:57 48.10773 16.58333 599 ft 28 kts 164°
2026-05-04 19:57 48.10672 16.58376 601 ft 15 kts 164°
2026-05-04 19:57 48.10555 16.58425 602 ft 18 kts 165°
2026-05-04 19:57 48.10430 16.58480 602 ft 13 kts 163°
2026-05-04 19:58 48.10383 16.58457 602 ft 3 kts 268°
2026-05-04 19:58 48.10403 16.58403 603 ft 8 kts 302°
2026-05-04 19:58 48.10436 16.58323 604 ft 9 kts 302°
2026-05-04 19:58 48.10479 16.58221 604 ft 13 kts 302°
2026-05-04 19:59 48.10560 16.58138 604 ft 16 kts 345°
2026-05-04 19:59 48.10684 16.58086 602 ft 20 kts 345°
2026-05-04 19:59 48.10820 16.58030 601 ft 21 kts 345°
2026-05-04 19:59 48.10962 16.57970 599 ft 19 kts 344°
2026-05-04 20:00 48.11086 16.57910 598 ft 17 kts 328°
2026-05-04 20:00 48.11145 16.57755 598 ft 17 kts 295°
2026-05-04 20:00 48.11203 16.57574 600 ft 20 kts 297°
2026-05-04 20:00 48.11266 16.57383 603 ft 21 kts 296°
2026-05-04 20:01 48.11332 16.57181 607 ft 22 kts 296°
2026-05-04 20:01 48.11402 16.56964 608 ft 21 kts 296°
2026-05-04 20:01 48.11454 16.56864 607 ft 7 kts 354°
2026-05-04 20:01 48.11506 16.56896 608 ft 9 kts 27°
2026-05-04 20:02 48.11571 16.56911 608 ft 10 kts 330°
2026-05-04 20:02 48.11616 16.56809 607 ft 13 kts 298°
2026-05-04 20:02 48.11656 16.56695 605 ft 8 kts 298°
2026-05-04 20:02 48.11688 16.56671 604 ft 5 kts 14°
2026-05-04 20:03 48.11732 16.56701 603 ft 4 kts 26°
2026-05-04 20:03 48.11746 16.56711 602 ft 0 kts 26°